Location: Airlie Beach - Cannonvale QLD, Australia
(20.2768°S, 148.7558°E)
Time: 04:26:23
(UTC+10:00)

BlueWalker 3 - Pass Details

Date: 04 April 2023
Orbit: 494 x 513 km, 53.2° (Epoch: 31 May)

Event Time Altitude Azimuth Distance (km) Brightness Sun altitude
Exits shadow 04:53:12 15° 196° (SSW) 1,396 4.0 -19.5°
Drops below altitude 10° 04:54:27 10° 180° (S) 1,708 4.6 -19.2°
Sets 04:57:08 0° 161° (SSE) 2,600 5.8 -18.5°
